METEOR 2-7 DEB, 45515

Orbit data source: Space-Track

METEOR 2-7 DEB, 45515 is space debris in LEO originally from a launch on Thu, 12 Feb 1981 UTC launched from the Plesetsk Missile And Space Complex (PKMTR). Debris objects in space refer to the collection of defunct objects orbiting the Earth. Examples of debris include non-operational satellites, rocket bodies, and fragments generated from explosions, collisions, or faulty payload assembly.

Loading next visibility...
METEOR 2-7 DEB details
Identifier
45515, 1981-043AA
Orbit
LEO
Last TLE update3 days ago
Origin
Flag of CISVVKO VKS (CIS)
ManufacturerUnknown
MissionSpacecraft
Bus & MotorUnknown
MassUnknown
Launch date (UTC)
1981-02-12 (44 years ago)
Launch vehicleUnknown
Launch site
Plesetsk Missile And Space Complex (PKMTR)
Object type
Payload
Rocket body
Debris
Shape & HBRUnknown
Radar Cross SectionSmall (<0.1 m²)

Expand to show TLE details & history

TLE from 3 days ago
0 METEOR 2-7 DEB
1 45515U 81043AA  24358.35171681  .00015823  00000-0  54659-2 0  9990
2 45515  81.2551 202.0009 0007139  20.6637  96.3474 14.35694726574502
Epoch: 2024-12-23T08:26Z
Definitive object data (Epoch: 2024-12-23T08:26:28.332Z)
Latitude61.72826°
Longitude146.47863°
Altitude783.862 km
Speed7.467 km/s
True Right ascension00h 21m 53s
True Declination61° 35' 06"
Sunlit
Object was in daylight at TLE epoch
Visualization TLE readout
Latitude-63.74926°
Longitude-38.35191°
Altitude795.526 km
Speed7.455 km/s
Apparent Right ascension03h 42m 49s
Apparent Declination-77° 29' 21"
Sunlit
Object is in daylight
Visualization observer readout
Local Sidereal Time13:34:11
Azimuth190.354° SSW
Elevation-50.093°
Doppler factor1
Orbital elements
Apogee altitude775.001 km
Perigee altitude764.795 km
Semi-major axis7,148.035 km
Eccentricity0.0007139
Inclination81.2551°
RAAN202.0009°
Arg. of periapsis20.6637°
True anomaly96.4287°
Mean anomaly96.3474°
Eccentric anomaly96.38805°
Mean motion3.59139 °/min
BSTAR0.0054659
Orbital period100.24 mins
Loading maneuver chart data...
Loading historical data...
Loading historical data...
Loading historical data...
Loading historical data...
Loading historical data...
Loading historical data...
Loading historical data...

METEOR 2-7 DEB Visibility forecast

Observer location: undefined°, undefined

Span
Click to sort rows by Start time (UTC) header in descending order
Start Az.
Max El. time (UTC)
Max El. Az.
Max El.
End time (UTC)
End Az.
9 mins2024-12-26 14:37:23.407Z203.338° SW2024-12-26 14:42:23.407Z305.862° NW39.796°2024-12-26 14:46:23.407Z359.708° N
9 mins2024-12-27 01:07:23.407Z355.866° N2024-12-27 01:11:23.407Z82.556° E44.074°2024-12-27 01:16:23.407Z165.988° S
8 mins2024-12-27 14:03:23.407Z179.112° S2024-12-27 14:06:23.407Z120.296° SE44.004°2024-12-27 14:11:23.407Z12.846° NNE
|